Regional Weather Roundup
Issued by NWS Goodland, KS

Home | Current Version | Previous Version | Text Only | Print | Product List | Glossary Off
Versions: 1 2 3 4 5 6 7 8 9 10 11 12 13 14 15 16 17 18 19 20 21 22 23 24 25 26 27 28 29 30 31 32 33 34 35 36 37 38 39 40 41 42 43 44 45 46 47 48 49 50

000
ASUS43 KGLD 060608
RWRGLD

GOODLAND FORECAST AREA HOURLY WEATHER ROUNDUP
NATIONAL WEATHER SERVICE GOODLAND KS
1200 AM MDT MON JUL 06 2015

...OFFICIAL OBSERVATIONS...

CITY           SKY/WX    TMP DP  RH WIND       PRES   REMARKS
GOODLAND KS    CLOUDY    67  64  90 NW9       29.90R
HILL CITY KS   CLOUDY    85  62  46 S15       29.80S
IMPERIAL NEB   CLOUDY    71  65  81 N17G26    29.91R
MCCOOK NEB     CLOUDY    77  64  64 W8        29.84R
AKRON CO       CLOUDY    65  63  93 N14       30.04R
BURLINGTON CO  MOCLDY    69  60  73 N12       29.97R
LIMON CO       CLOUDY    65  58  78 N12       30.10R
$$

...UNOFFICIAL OBSERVATIONS...

CITY           SKY/WX    TMP DP  RH WIND       PRES   REMARKS
COLBY KS       PTCLDY    79  64  61 E6        29.87F
GOVE KS          N/A     82  32  16 MISG        N/A
NORTON KS      CLEAR     82  57  42 SW7       29.84
SHARON SPRINGS   N/A     75  62  64 CALM        N/A
KIT CARSON CO    N/A     70  59  68 MISG        N/A
$$


USA.gov is the U.S. government's official web portal to all federal, state and local government web resources and services.